Flag for Norway Weather past 2 weeks in Ulsteinvik, Norway

Now
54 °F

Sprinkles. Broken clouds.


Feels Like: 53 °F
Forecast: 53 / 58 °F
Wind: 3 mph from Southwest

Location: Orsta-Volda / Hovden

Current Time: Sep 4, 2015 at 1:03:00 PM

Latest Report: Sep 4, 2015 at 11:50 AM


Visibility: N/A

Pressure: 29.80 "Hg

Humidity: 94%

Dew point: 52 °F

Location of UlsteinvikLocation

Historic Weather in Ulsteinvik — Graph

°F

Ulsteinvik temperature yesterday

Maximum temperature yesterday: 68 °F (at 1:50 PM)
Minimum temperature yesterday: 45 °F (at 5:50 AM)
Average temperature yesterday: 58 °F

Past Weeks' High & Low Weather Summary

 TemperatureHumidityPressure
High79 °F (Aug 20, 2:50 PM)100% (Aug 31, 8:50 AM)30.21 "Hg (Aug 31, 8:50 AM)
Low43 °F (Sep 2, 5:50 AM)26% (Aug 24, 3:50 PM)29.45 "Hg (Aug 26, 5:50 AM)
Average61 °F71%29.86 "Hg
* Reported Aug 20 11:50 AM — Sep 4 11:50 AM, Ulsteinvik, Weather by CustomWeather, © 2015

Note: Actual official high and low records may vary slightly from our data, if they occured in-between our weather recording intervals... More about our weather records

Advertising

Ulsteinvik weather history for previous 24 hours

 ConditionsComfort  
Time TempWeatherWind HumidityBarometerVisibility
11:50 AM
Fri, Sep 4
54 °FSprinkles. Broken clouds.3 mph94%29.80 "HgN/A
11:20 AM54 °FSprinkles. Broken clouds.3 mph94%29.80 "HgN/A
10:50 AM54 °FBroken clouds.6 mph94%29.80 "HgN/A
10:20 AM54 °FSprinkles. Broken clouds.2 mph94%29.80 "Hg6 mi
9:50 AM54 °FRain showers. Broken clouds.2 mph94%29.80 "Hg6 mi
8:50 AM52 °FBroken clouds.2 mph100%29.80 "HgN/A
8:20 AM50 °FBroken clouds.2 mph100%29.80 "HgN/A
6:50 AM50 °FPartly cloudy.2 mph100%29.83 "HgN/A
5:50 AM50 °FPartly cloudy.2 mph94%29.83 "HgN/A
10:50 PM
Thu, Sep 3
48 °FClear.1 mph100%29.86 "Hg10 mi
9:50 PM50 °FClear.1 mph94%29.86 "Hg10 mi
7:50 PM61 °FSunny.3 mph68%29.83 "Hg10 mi
6:50 PM64 °FSunny.3 mph64%29.80 "Hg10 mi
5:50 PM68 °FSunny.3 mph53%29.80 "Hg10 mi
4:50 PM68 °FSunny.3 mph49%29.80 "Hg10 mi
2:50 PM66 °FSunny.3 mph49%29.80 "Hg10 mi
1:50 PM68 °FSunny.3 mph49%29.80 "Hg10 mi
1:20 PM64 °FSunny.3 mph56%29.80 "Hg10 mi
Weather by CustomWeather, © 2015

See weather overviewHow to use our weather pages